367P/Catalina (2011)

Japanese version
Home page
Updated on May 21, 2018

---------------------------------------------------------------------

* Profile

Designation 367P/2011 CR42
Discovery Date February 10, 2011
Magnitude 17.6 mag
Discoverer A. Boattini (Catalina Sky Survey)

* Pictures

* Orbital Elements

Epoch 2011 Nov. 15.0 TT = JDT 2455880.5
T 2011 Nov. 29.92719 TT                                 MPCW
q   2.5283688            (2000.0)            P               Q
n   0.14978971     Peri.  173.50334     -0.61123809     +0.78139218
a   3.5114089      Node    58.74136     -0.73259855     -0.49847769
e   0.2799560      Incl.    8.45949     -0.29947849     -0.37542808
P   6.58
From 121 observations 2011 Feb. 10-2018 Apr. 18, mean residual 0".6.

* Magnitudes Graph

        H = 15.0  G = 0.15

---------------------------------------------------------------------

The orbital elements are published on M.P.E.C. 2018-H30.
The magnitudes graphs are made with Comet for Windows.

---------------------------------------------------------------------

Copyright(C) Seiichi Yoshida (comet@aerith.net). All rights reserved.